Location: Amsterdam
(30.7274°N, 84.4357°W)
Time: 00:04:03
(UTC+00:00)

Tiros 1 despin weight - Pass Details

Date: 20 February 2026
Orbit: 556 x 593 km, 48.2° (Epoch: 9 March)

Event Time Altitude Azimuth Distance (km) Brightness Sun altitude
Enters shadow 02:58:47 - 305° (NW) 2,740 ? -45.4°
Rises 02:58:48 0° 304° (NW) 2,733 - -45.4°
Reaches altitude 10° 03:01:06 10° 299° (WNW) 1,839 - -45.9°
Maximum altitude 03:05:08 47° 225° (SW) 742 - -46.7°
Drops below altitude 10° 03:09:12 10° 151° (SSE) 1,849 - -47.6°
Sets 03:11:31 0° 145° (SE) 2,749 - -48.0°
